Regional Weather Roundup
Issued by NWS State College, PA

Home | Current Version | Previous Version | Graphics & Text | Print | Product List | Glossary On
Versions: 1 2 3 4 5 6 7 8 9 10 11 12 13 14 15 16 17 18 19 20 21 22 23 24 25 26 27 28 29 30 31 32 33 34 35 36 37 38 39 40 41 42 43 44 45 46 47 48 49 50
000
ASUS41 KCTP 280010
RWRCTP

REGIONAL WEATHER ROUNDUP
NATIONAL WEATHER SERVICE STATE COLLEGE PA
800 PM EDT THU JUL 27 2017

Note: "fair" indicates few or no clouds below 12,000 feet with no
significant weather and/or obstructions to visibility.

* = STATION THAT DOES NOT REPORT PRECIPITATION /E.G. RAIN...SNOW...ETC/
    THUNDER OR FOG.

PAZ002>004-007>009-013>016-020>023-029>032-280100-
WESTERN PENNSYLVANIA

CITY           SKY/WX    TMP DP  RH WIND       PRES   REMARKS
ERIE           CLOUDY    78  62  57 NE5       29.89R
MEADVILLE      CLEAR     76  68  76 N6        29.91S
FRANKLIN*      CLEAR     77  61  57 CALM      29.92R
NEW CASTLE     FAIR      77  70  79 CALM      29.89S
BEAVER COUNTY  NOT AVBL
BUTLER*        PTCLDY    81  64  57 CALM      29.90R
PITTSBURGH INT MOCLDY    80  69  69 S3        29.89R
PITTSBURGH     CLOUDY    77  67  71 S8        29.89R
INDIANA*       PTCLDY    79  68  69 SW3       29.94R
LATROBE        MOCLDY    77  68  73 S6        29.91S
WASHINGTON CO* MOCLDY    73  66  78 SW7       29.91S
$$

PAZ004>006-010>012-017>019-024>028-033>037-041-042-045-046-049>053-280100-
CENTRAL PENNSYLVANIA

CITY           SKY/WX    TMP DP  RH WIND       PRES   REMARKS
BRADFORD       CLOUDY    73  66  78 CALM      29.95R
DUBOIS         CLEAR     76  60  57 CALM      29.92R
CLEARFIELD     CLEAR     80  57  45 CALM      29.91S
JOHNSTOWN      PTCLDY    75  65  70 W3        29.95S
ALTOONA        CLEAR     76  65  68 W5        29.91S
STATE COLLEGE  CLEAR     79  66  65 CALM      29.90R
WILLIAMSPORT   MOCLDY    78  68  71 E6        29.87R
SELINSGROVE    CLOUDY    76  72  87 CALM      29.88S
FT INDIANTOWN  CLEAR     76  71  85 NE3       29.88F
CAPITAL CITY   CLEAR     80  69  69 SE8       29.87F
HARRISBURG     PTCLDY    76  72  87 SE7       29.86F
YORK           CLEAR     78  73  84 E7        29.88S
$$

PAZ038>040-043-044-047-048-054-055-060>062-067>071-280100-
EASTERN PENNSYLVANIA

CITY           SKY/WX    TMP DP  RH WIND       PRES   REMARKS
SCRANTON       PTCLDY    75  65  70 S3        29.90S
MOUNT POCONO   PTCLDY    68  67  96 S5        29.95S
ALLENTOWN      CLOUDY    76  67  73 E3        29.90S
QUAKERTOWN*    CLOUDY    75  70  83 CALM      29.91F
READING        PTCLDY    77  73  87 CALM      29.88S
LANCASTER      CLEAR     78  73  84 E5        29.88F
COATESVILLE    PTCLDY    77  72  83 CALM      29.92S
POTTSTOWN      MOCLDY    76  72  87 CALM      29.91S
BLUE BELL      CLOUDY    73  72  94 CALM      29.90S
DOYLESTOWN       N/A    N/A N/A N/A MISG      29.89F
WILLOW GROVE   NOT AVBL
NORTH PHILA    CLOUDY    80  71  74 SE5       29.90F
PHILADELPHIA   MOCLDY    78  71  79 SE9       29.88F
$$



USA.gov is the U.S. government's official web portal to all federal, state and local government web resources and services.